Regional Weather Roundup
Issued by NWS

Home | Current Version | Previous Version | Graphics & Text | Print | Product List | Glossary On
Versions: 1 2 3 4 5 6 7 8 9 10 11 12 13 14 15 16 17 18 19 20 21 22 23 24 25 26 27 28 29 30 31 32 33 34 35 36 37 38 39 40 41 42 43 44 45 46 47 48 49 50
000
ASUS43 KLOT 100606
RWRIL

ILLINOIS REGIONAL WEATHER ROUNDUP
NATIONAL WEATHER SERVICE CHICAGO/ROMEOVILLE IL
100 AM CDT THU JUL 10 2014

NOTE: "FAIR" INDICATES FEW OR NO CLOUDS BELOW 12,000 FEET WITH NO
SIGNIFICANT WEATHER AND/OR OBSTRUCTIONS TO VISIBILITY.

* THESE STATIONS ARE NOT UNDER NWS QUALITY CONTROL. THEY ALSO MAY NOT
  REPORT WEATHER SUCH AS PRECIPITATION OR FOG.

ILZ001-002-007-009-015-016-024-100700-
NORTHWEST ILLINOIS

CITY           SKY/WX    TMP DP  RH WIND       PRES   REMARKS
MOLINE         CLEAR     60  56  86 CALM      30.08
6HR MIN TEMP:  60; 6HR MAX TEMP:  76;

STERLING*      PTCLDY    57  54  88 CALM      30.09R
SAVANNA*       PTCLDY    61  57  88 CALM      30.07S
$$

ILZ003-004-008-010-011-017-018-100700-
NORTH CENTRAL ILLINOIS

CITY           SKY/WX    TMP DP  RH WIND       PRES   REMARKS
ROCKFORD       CLEAR     60  55  83 CALM      30.10S
6HR MIN TEMP:  59; 6HR MAX TEMP:  75;

FREEPORT*      CLEAR     56  54  92 CALM      30.11R
ROCHELLE*      CLEAR     55  53  94 CALM      30.09S
DE KALB*       CLEAR     60  53  77 CALM      30.10R
PERU*          CLEAR     62  56  82 CALM      30.09S
$$

ILZ005-006-012>014-019>023-100700-
NORTHEAST ILLINOIS

CITY           SKY/WX    TMP DP  RH WIND       PRES   REMARKS
CHICAGO-OHARE  CLEAR     63  53  70 SE3       30.08R
6HR MIN TEMP:  62; 6HR MAX TEMP:  76;

CHICAGO-MIDWAY CLEAR     67  60  78 CALM      30.08R
6HR MIN TEMP:  67; 6HR MAX TEMP:  76;

AURORA         CLEAR     56  53  90 CALM      30.09R
6HR MIN TEMP:  56; 6HR MAX TEMP:  74;

LANSING*       CLEAR     59  57  92 CALM      30.09R
JOLIET*        CLEAR     58  54  87 CALM      30.09S
WAUKEGAN       CLEAR     55  54  96 CALM      30.08R
6HR MIN TEMP:  55; 6HR MAX TEMP:  66;

DUPAGE AIRPORT CLEAR     59  55  87 CALM      30.08R
6HR MIN TEMP:  59; 6HR MAX TEMP:  75;

KANKAKEE*      CLEAR     59  57  94 CALM      30.09R
WHEELING       CLEAR     62  57  83 CALM      30.10
6HR MIN TEMP:  62; 6HR MAX TEMP:  76;

MORRIS*        CLEAR     60  57  91 CALM      30.08R
ROMEOVILLE*    CLEAR     62  55  76 CALM      30.09R
NORTHERLY ISL    N/A     63  60  90 S1          N/A
$$

LMZ740>746-100700-
SOUTHERN LAKE MICHIGAN

STATION/POSITION SKY/WX   TEMP    WIND        PRES    VSBY  WAVE
                          AIR SEA DIR/SP/G                  HT/PER
                          (F)     (DEG/KT/KT) (MB)    (MI)  (FT/S)
SOUTHERN BUOY              58 56   CALM  /  2 1018.8R         0
WAUKEGAN HARBOR            63     250/  3/  3 1020.0R
HARRISON CRIB              65     140/  5/  5   N/A
BURNHAM HARBOR             63      CALM  /  2   N/A
CALUMET HARBOR             65      CALM  /  1 1019.4R
MICHIGAN CITY              64     120/  4/  5   N/A
$$

ILZ025>027-034>036-040-047-049-050-058-095>099-100700-
WEST-CENTRAL ILLINOIS

CITY           SKY/WX    TMP DP  RH WIND       PRES   REMARKS
QUINCY         PTCLDY    66  57  72 CALM      30.09R
GALESBURG*     CLEAR     60  58  94 CALM      30.09R
MACOMB*        CLEAR     58  57  97 CALM      30.11R
JACKSONVILLE*  CLEAR     62  60  93 CALM      30.10R
PITTSFIELD*    PTCLDY    63  59  89 CALM      30.10R
$$

ILZ028>032-037-038-041>044-048-051>054-059>061-100700-
CENTRAL ILLINOIS

CITY           SKY/WX    TMP DP  RH WIND       PRES   REMARKS
PONTIAC        CLEAR     57  57 100 CALM      30.09R
BLOOMINGTON    CLEAR     65  56  72 CALM      30.11R
DECATUR        CLEAR     65  58  78 CALM      30.09R
PEORIA         CLEAR     64  58  80 CALM      30.09R
6HR MIN TEMP:  63; 6HR MAX TEMP:  78;

LACON*         CLEAR     59  57  91 CALM      30.08R
LINCOLN*       CLEAR     62  59  90 CALM      30.07R
SPRINGFIELD    CLEAR     60  58  92 CALM      30.09R
6HR MIN TEMP:  60; 6HR MAX TEMP:  79;

TAYLORVILLE    CLEAR     57  55  94 N5        30.08S
$$

ILZ033-039-045-046-055>057-062-063-100700-
EAST-CENTRAL ILLINOIS

CITY           SKY/WX    TMP DP  RH WIND       PRES   REMARKS
CHAMPAIGN      CLEAR     61  56  83 N8        30.08
RANTOUL*       CLEAR     66  56  70 N5        30.09R
MATTOON        CLEAR     62  58  86 CALM      30.07R
PARIS*         CLEAR     59  58  96 CALM      30.07S
$$

ILZ079-100>102-100700-
SOUTHWEST ILLINOIS

CITY           SKY/WX    TMP DP  RH WIND       PRES   REMARKS
ALTON          CLEAR     61  61 100 CALM      30.09S
BELLEVILLE     CLEAR     64  62  91 CALM      30.08R
CAHOKIA*       CLEAR     62  60  93 CALM      30.08
$$

ILZ064>066-069>071-074>076-080>082-084>086-088>090-092>094-100700-
SOUTH-CENTRAL ILLINOIS

CITY           SKY/WX    TMP DP  RH WIND       PRES   REMARKS
CARBONDALE     MOCLDY    67  63  87 NW5       30.07
6HR MIN TEMP:  67; 6HR MAX TEMP:  82;

CAIRO*         MOCLDY    73  67  82 N3        30.04S
MARION         PTCLDY    70  64  83 CALM      30.07R
MT. VERNON     PTCLDY    64  57  77 N3        30.08R
CENTRALIA*     CLEAR     61  59  93 CALM      30.08R
SALEM*         CLEAR     65  61  87 CALM      30.08R
METROPOLIS*    CLEAR     67  65  91 CALM      30.04R
$$

ILZ067-068-072-073-078-083-087-091-100700-
SOUTHEAST ILLINOIS

CITY           SKY/WX    TMP DP  RH WIND       PRES   REMARKS
FLORA*         CLEAR     63  57  82 NW3       30.08R
HARRISBURG*    PTCLDY    71  64  77 N3        30.07R
ROBINSON*      CLEAR     63  61  93 CALM      30.07R
CARMI*         MOCLDY    70  64  82 N3        30.05R
$$

ABBREVIATIONS USED IN REMARKS
   TC - TEMPERATURE IN CELSIUS
  WCI - WIND CHILL INDEX
   HX - HEAT INDEX
  VSB - VISIBILITY
$$



USA.gov is the U.S. government's official web portal to all federal, state and local government web resources and services.